SHT22A EGLL-EGJB

Flight info

Callsign SHT22A
Flight time 0h 36m
Altitude 18000
Route GASGU2J GASGU N514 EVTES N621 SAM N63 LELNA LELNA1V
Aircraft A319/M-SDE3FGIJ1KRWXY/LB1

Departure

Time 2026-05-08 09:34
Airport London Heathrow Airport (EGLL)

Arrival

Time 2026-05-08 10:10
Airport Guernsey Airport (EGJB)
Time Latitude Longitude Altitude Speed Heading
2026-05-08 09:12 51.47133 -0.48625 89 ft 0 kts 269°
2026-05-08 09:27 51.47133 -0.48614 87 ft 3 kts 269°
2026-05-08 09:27 51.47133 -0.48585 89 ft 3 kts 270°
2026-05-08 09:28 51.47133 -0.48555 87 ft 3 kts 270°
2026-05-08 09:28 51.47134 -0.48525 89 ft 3 kts 251°
2026-05-08 09:28 51.47141 -0.48498 90 ft 3 kts 223°
2026-05-08 09:28 51.47155 -0.48482 90 ft 2 kts 175°
2026-05-08 09:29 51.47162 -0.48483 89 ft 0 kts 176°
2026-05-08 09:31 51.47142 -0.48480 89 ft 10 kts 175°
2026-05-08 09:31 51.47042 -0.48472 87 ft 17 kts 178°
2026-05-08 09:32 51.46919 -0.48473 87 ft 16 kts 179°
2026-05-08 09:32 51.46806 -0.48472 87 ft 15 kts 180°
2026-05-08 09:32 51.46742 -0.48528 87 ft 12 kts 265°
2026-05-08 09:32 51.46740 -0.48682 87 ft 13 kts 269°
2026-05-08 09:33 51.46686 -0.48751 87 ft 9 kts 179°
2026-05-08 09:33 51.46610 -0.48764 91 ft 13 kts 200°
2026-05-08 09:33 51.46514 -0.48787 87 ft 16 kts 162°
2026-05-08 09:33 51.46477 -0.48617 88 ft 20 kts 88°
2026-05-08 09:34 51.46476 -0.48293 89 ft 52 kts 92°
2026-05-08 09:34 51.46482 -0.47328 87 ft 118 kts 89°
2026-05-08 09:34 51.46479 -0.45785 399 ft 138 kts 91°
2026-05-08 09:34 51.46484 -0.44292 1101 ft 137 kts 92°
2026-05-08 09:35 51.46506 -0.42701 1561 ft 152 kts 92°
2026-05-08 09:35 51.46235 -0.40969 1934 ft 172 kts 124°
2026-05-08 09:35 51.45492 -0.39302 2333 ft 197 kts 127°
2026-05-08 09:35 51.44646 -0.37391 2858 ft 222 kts 126°
2026-05-08 09:36 51.43692 -0.35271 3513 ft 244 kts 130°
2026-05-08 09:36 51.42352 -0.33553 4486 ft 252 kts 153°
2026-05-08 09:36 51.40655 -0.32793 5581 ft 257 kts 176°
2026-05-08 09:36 51.38881 -0.33218 6682 ft 262 kts 200°
2026-05-08 09:37 51.37339 -0.34785 7722 ft 267 kts 221°
2026-05-08 09:37 51.35953 -0.36803 8808 ft 270 kts 222°
2026-05-08 09:37 51.34688 -0.39041 9837 ft 276 kts 238°
2026-05-08 09:37 51.33974 -0.41942 10552 ft 292 kts 253°
2026-05-08 09:38 51.33265 -0.45066 10952 ft 314 kts 245°
2026-05-08 09:38 51.32288 -0.48259 11661 ft 323 kts 241°
2026-05-08 09:38 51.31210 -0.51426 12514 ft 327 kts 240°
2026-05-08 09:38 51.30090 -0.54630 13387 ft 331 kts 240°
2026-05-08 09:39 51.28972 -0.57865 14203 ft 335 kts 240°
2026-05-08 09:39 51.27857 -0.61177 14943 ft 340 kts 241°
2026-05-08 09:39 51.26754 -0.64532 15671 ft 344 kts 242°
2026-05-08 09:39 51.25647 -0.67947 16400 ft 349 kts 242°
2026-05-08 09:40 51.24529 -0.71419 17132 ft 353 kts 242°
2026-05-08 09:40 51.23402 -0.74928 17823 ft 358 kts 242°
2026-05-08 09:40 51.22264 -0.78463 18036 ft 359 kts 242°
2026-05-08 09:40 51.21111 -0.82029 18086 ft 364 kts 242°
2026-05-08 09:41 51.19945 -0.85615 18084 ft 365 kts 242°
2026-05-08 09:41 51.18773 -0.89203 18086 ft 365 kts 242°
2026-05-08 09:41 51.17601 -0.92791 18086 ft 365 kts 242°
2026-05-08 09:41 51.16431 -0.96379 18087 ft 365 kts 241°
2026-05-08 09:42 51.15264 -0.99968 18086 ft 365 kts 242°
2026-05-08 09:42 51.14095 -1.03561 18089 ft 365 kts 241°
2026-05-08 09:42 51.12940 -1.07105 18079 ft 364 kts 241°
2026-05-08 09:42 51.11767 -1.10680 18080 ft 365 kts 241°
2026-05-08 09:43 51.10589 -1.14259 18081 ft 365 kts 241°
2026-05-08 09:43 51.09393 -1.17822 18084 ft 365 kts 238°
2026-05-08 09:43 51.07893 -1.21058 18086 ft 363 kts 227°
2026-05-08 09:43 51.06026 -1.23746 18089 ft 362 kts 216°
2026-05-08 09:44 51.03916 -1.25939 18086 ft 362 kts 212°
2026-05-08 09:44 51.01791 -1.28097 18094 ft 362 kts 212°
2026-05-08 09:44 50.99670 -1.30259 18088 ft 362 kts 212°
2026-05-08 09:44 50.97549 -1.32429 18094 ft 362 kts 212°
2026-05-08 09:45 50.95418 -1.34566 18085 ft 362 kts 209°
2026-05-08 09:45 50.93183 -1.36392 18102 ft 362 kts 206°
2026-05-08 09:45 50.90935 -1.38188 18089 ft 362 kts 206°
2026-05-08 09:45 50.88682 -1.39982 18091 ft 362 kts 206°
2026-05-08 09:46 50.86429 -1.41779 18083 ft 362 kts 207°
2026-05-08 09:46 50.84180 -1.43570 18092 ft 362 kts 207°
2026-05-08 09:46 50.81931 -1.45359 18080 ft 362 kts 207°
2026-05-08 09:46 50.79680 -1.47151 18076 ft 363 kts 207°
2026-05-08 09:47 50.77426 -1.48942 18075 ft 363 kts 207°
2026-05-08 09:47 50.75171 -1.50730 18060 ft 363 kts 207°
2026-05-08 09:47 50.72922 -1.52515 18065 ft 363 kts 207°
2026-05-08 09:47 50.70665 -1.54301 18054 ft 363 kts 207°
2026-05-08 09:48 50.68406 -1.56086 18067 ft 363 kts 207°
2026-05-08 09:48 50.66144 -1.57875 18057 ft 363 kts 207°
2026-05-08 09:48 50.63916 -1.59637 18072 ft 363 kts 207°
2026-05-08 09:48 50.61656 -1.61423 18067 ft 364 kts 207°
2026-05-08 09:49 50.59394 -1.63210 18074 ft 364 kts 207°
2026-05-08 09:49 50.57131 -1.64991 18075 ft 364 kts 207°
2026-05-08 09:49 50.54866 -1.66768 18065 ft 364 kts 206°
2026-05-08 09:49 50.52598 -1.68544 18058 ft 364 kts 206°
2026-05-08 09:50 50.50332 -1.70318 18065 ft 364 kts 206°
2026-05-08 09:50 50.48065 -1.72089 18063 ft 364 kts 206°
2026-05-08 09:50 50.45799 -1.73858 18056 ft 364 kts 206°
2026-05-08 09:50 50.43533 -1.75630 18060 ft 364 kts 207°
2026-05-08 09:51 50.41265 -1.77406 18071 ft 363 kts 206°
2026-05-08 09:51 50.39002 -1.79178 18067 ft 364 kts 206°
2026-05-08 09:51 50.36737 -1.80947 18068 ft 364 kts 206°
2026-05-08 09:51 50.34500 -1.82685 18067 ft 364 kts 206°
2026-05-08 09:52 50.32208 -1.84463 18072 ft 364 kts 206°
2026-05-08 09:52 50.29970 -1.86198 18070 ft 364 kts 206°
2026-05-08 09:52 50.27694 -1.87964 18060 ft 365 kts 206°
2026-05-08 09:52 50.25421 -1.89728 18070 ft 365 kts 206°
2026-05-08 09:53 50.23153 -1.91487 18070 ft 365 kts 206°
2026-05-08 09:53 50.20880 -1.93247 18065 ft 365 kts 206°
2026-05-08 09:53 50.18599 -1.95007 18072 ft 365 kts 206°
2026-05-08 09:53 50.16329 -1.96757 18080 ft 364 kts 206°
2026-05-08 09:54 50.14055 -1.98506 18071 ft 364 kts 206°
2026-05-08 09:54 50.11780 -2.00253 18071 ft 365 kts 206°
2026-05-08 09:54 50.09504 -2.02002 18066 ft 365 kts 206°
2026-05-08 09:54 50.07229 -2.03750 18076 ft 364 kts 206°
2026-05-08 09:55 50.04955 -2.05494 18071 ft 364 kts 206°
2026-05-08 09:55 50.02681 -2.07238 18059 ft 364 kts 206°
2026-05-08 09:55 50.00408 -2.08984 18062 ft 364 kts 207°
2026-05-08 09:55 49.98274 -2.11096 18065 ft 364 kts 218°
2026-05-08 09:56 49.96442 -2.13803 18063 ft 365 kts 228°
2026-05-08 09:56 49.94761 -2.16769 18058 ft 365 kts 229°
2026-05-08 09:56 49.93078 -2.19721 18054 ft 365 kts 228°
2026-05-08 09:56 49.91409 -2.22643 17870 ft 356 kts 228°
2026-05-08 09:57 49.88727 -2.27321 17231 ft 344 kts 228°
2026-05-08 09:57 49.87143 -2.30074 16743 ft 340 kts 227°
2026-05-08 09:57 49.85072 -2.33671 16108 ft 334 kts 228°
2026-05-08 09:58 49.84032 -2.35476 15787 ft 332 kts 227°
2026-05-08 09:58 49.82499 -2.38136 15317 ft 328 kts 227°
2026-05-08 09:58 49.80950 -2.40711 14761 ft 327 kts 221°
2026-05-08 09:58 49.79118 -2.42803 14111 ft 329 kts 215°
2026-05-08 09:59 49.77286 -2.44932 13167 ft 329 kts 223°
2026-05-08 09:59 49.75932 -2.47753 12165 ft 328 kts 239°
2026-05-08 09:59 49.74825 -2.50831 11296 ft 324 kts 240°
2026-05-08 09:59 49.73764 -2.53852 10792 ft 317 kts 240°
2026-05-08 10:00 49.72720 -2.56830 10301 ft 311 kts 240°
2026-05-08 10:00 49.71721 -2.59681 9801 ft 299 kts 240°
2026-05-08 10:00 49.70751 -2.62471 9258 ft 290 kts 240°
2026-05-08 10:00 49.69817 -2.65194 8727 ft 283 kts 240°
2026-05-08 10:01 49.68907 -2.67847 8263 ft 276 kts 240°
2026-05-08 10:01 49.68023 -2.70429 7840 ft 268 kts 240°
2026-05-08 10:01 49.67161 -2.72951 7382 ft 263 kts 240°
2026-05-08 10:01 49.66317 -2.75431 6934 ft 259 kts 240°
2026-05-08 10:02 49.65485 -2.77879 6486 ft 255 kts 240°
2026-05-08 10:02 49.64666 -2.80285 6024 ft 252 kts 240°
2026-05-08 10:02 49.63858 -2.82656 5586 ft 247 kts 240°
2026-05-08 10:02 49.63069 -2.84970 5211 ft 240 kts 240°
2026-05-08 10:03 49.62316 -2.87178 4846 ft 232 kts 240°
2026-05-08 10:03 49.61499 -2.89303 4490 ft 227 kts 227°
2026-05-08 10:03 49.60298 -2.90714 4424 ft 212 kts 202°
2026-05-08 10:03 49.58888 -2.91181 4375 ft 207 kts 177°
2026-05-08 10:04 49.57500 -2.90702 4325 ft 205 kts 158°
2026-05-08 10:04 49.56164 -2.89927 4281 ft 205 kts 159°
2026-05-08 10:04 49.54830 -2.89160 4233 ft 205 kts 159°
2026-05-08 10:04 49.53495 -2.88396 4054 ft 201 kts 159°
2026-05-08 10:05 49.52224 -2.87671 3910 ft 188 kts 159°
2026-05-08 10:05 49.51017 -2.86982 3682 ft 183 kts 159°
2026-05-08 10:05 49.49834 -2.86304 3462 ft 181 kts 159°
2026-05-08 10:05 49.48672 -2.85634 3282 ft 180 kts 159°
2026-05-08 10:06 49.47485 -2.84949 3156 ft 179 kts 158°
2026-05-08 10:06 49.46333 -2.84285 3055 ft 179 kts 159°
2026-05-08 10:06 49.45148 -2.83605 2972 ft 179 kts 158°
2026-05-08 10:06 49.44098 -2.82659 2907 ft 178 kts 139°
2026-05-08 10:07 49.43350 -2.81223 2782 ft 168 kts 119°
2026-05-08 10:07 49.42996 -2.79561 2617 ft 163 kts 99°
2026-05-08 10:07 49.42989 -2.77830 2428 ft 161 kts 89°
2026-05-08 10:07 49.43040 -2.76126 2217 ft 159 kts 89°
2026-05-08 10:08 49.43090 -2.74433 2002 ft 158 kts 89°
2026-05-08 10:08 49.43139 -2.72751 1792 ft 156 kts 89°
2026-05-08 10:08 49.43186 -2.71146 1586 ft 140 kts 89°
2026-05-08 10:08 49.43226 -2.69756 1402 ft 126 kts 89°
2026-05-08 10:09 49.43263 -2.68446 1236 ft 120 kts 89°
2026-05-08 10:09 49.43299 -2.67164 1068 ft 120 kts 89°
2026-05-08 10:09 49.43336 -2.65883 921 ft 120 kts 90°
2026-05-08 10:09 49.43371 -2.64620 740 ft 119 kts 89°
2026-05-08 10:10 49.43407 -2.63337 611 ft 119 kts 87°
2026-05-08 10:10 49.43444 -2.62069 450 ft 119 kts 88°
2026-05-08 10:10 49.43480 -2.60841 326 ft 109 kts 88°
2026-05-08 10:10 49.43499 -2.60074 337 ft 36 kts 87°
2026-05-08 10:11 49.43476 -2.59871 347 ft 14 kts 160°
2026-05-08 10:11 49.43398 -2.59861 345 ft 6 kts 177°
2026-05-08 10:11 49.43349 -2.59842 351 ft 9 kts 127°
2026-05-08 10:11 49.43352 -2.59760 351 ft 8 kts 79°
2026-05-08 10:12 49.43359 -2.59720 349 ft 3 kts 72°
2026-05-08 10:12 49.43352 -2.59685 352 ft 2 kts 155°
2026-05-08 10:12 49.43316 -2.59693 345 ft 7 kts 184°
2026-05-08 10:12 49.43265 -2.59688 345 ft 6 kts 177°
2026-05-08 10:13 49.43255 -2.59688 345 ft 0 kts 178°